TimeCST,TemperatureF,Dew PointF,Humidity,Sea Level PressureIn,VisibilityMPH,Wind Direction,Wind SpeedMPH,Gust SpeedMPH,PrecipitationIn,Events,Conditions,WindDirDegrees,DateUTC
12:52 AM,33.1,28.9,85,30.48,4.0,Calm,Calm,-,N/A,,Clear,0,2012-11-18 06:52:00
1:52 AM,30.0,28.9,96,30.48,3.0,Calm,Calm,-,N/A,,Clear,0,2012-11-18 07:52:00
2:52 AM,30.0,27.0,88,30.47,4.0,Calm,Calm,-,N/A,,Clear,0,2012-11-18 08:52:00
3:52 AM,30.0,27.0,88,30.45,4.0,Calm,Calm,-,N/A,,Clear,0,2012-11-18 09:52:00
4:52 AM,30.9,28.0,89,30.46,4.0,Calm,Calm,-,N/A,,Clear,0,2012-11-18 10:52:00
5:52 AM,30.0,28.0,92,30.45,4.0,Calm,Calm,-,N/A,,Clear,0,2012-11-18 11:52:00
6:52 AM,28.9,26.1,89,30.47,3.0,Calm,Calm,-,N/A,,Clear,0,2012-11-18 12:52:00
7:52 AM,33.1,30.9,92,30.47,3.0,Calm,Calm,-,N/A,,Clear,0,2012-11-18 13:52:00
8:52 AM,43.0,34.0,71,30.46,6.0,SSE,5.8,-,N/A,,Haze,160,2012-11-18 14:52:00
9:52 AM,48.0,34.0,58,30.46,8.0,South,6.9,-,N/A,,Clear,190,2012-11-18 15:52:00
10:52 AM,50.0,33.1,52,30.44,8.0,SSE,3.5,-,N/A,,Clear,160,2012-11-18 16:52:00
11:52 AM,53.1,33.1,47,30.41,9.0,South,6.9,-,N/A,,Clear,180,2012-11-18 17:52:00
12:52 PM,55.0,32.0,42,30.39,10.0,South,9.2,-,N/A,,Clear,190,2012-11-18 18:52:00
1:52 PM,55.9,33.1,42,30.39,9.0,South,6.9,-,N/A,,Clear,180,2012-11-18 19:52:00
2:52 PM,55.0,32.0,42,30.38,10.0,South,5.8,-,N/A,,Clear,170,2012-11-18 20:52:00
3:52 PM,53.1,34.0,48,30.38,9.0,ESE,4.6,-,N/A,,Clear,110,2012-11-18 21:52:00
4:52 PM,50.0,33.1,52,30.38,10.0,ESE,3.5,-,N/A,,Clear,120,2012-11-18 22:52:00
5:52 PM,44.1,32.0,63,30.39,10.0,Calm,Calm,-,N/A,,Clear,0,2012-11-18 23:52:00
6:52 PM,42.1,32.0,67,30.39,9.0,Calm,Calm,-,N/A,,Clear,0,2012-11-19 00:52:00
7:52 PM,39.9,32.0,73,30.38,9.0,Calm,Calm,-,N/A,,Clear,0,2012-11-19 01:52:00
8:52 PM,41.0,33.1,73,30.38,9.0,Calm,Calm,-,N/A,,Clear,0,2012-11-19 02:52:00
9:52 PM,41.0,30.9,67,30.36,9.0,South,5.8,-,N/A,,Clear,170,2012-11-19 03:52:00
10:52 PM,42.1,32.0,67,30.35,10.0,SSE,5.8,-,N/A,,Clear,160,2012-11-19 04:52:00
11:52 PM,41.0,30.9,67,30.34,10.0,South,3.5,-,N/A,,Clear,180,2012-11-19 05:52:00